Regional Weather Roundup
Issued by NWS

Home | Current Version | Previous Version | Graphics & Text | Print | Product List | Glossary On
Versions: 1 2 3 4 5 6 7 8 9 10 11 12 13 14 15 16 17 18 19 20 21 22 23 24 25 26 27 28 29 30 31 32 33 34 35 36 37 38 39 40 41 42 43 44 45 46 47 48 49 50
000
ASUS43 KMPX 062210
RWRMN
WEATHER ROUNDUP FOR MINNESOTA
NATIONAL WEATHER SERVICE TWIN CITIES/CHANHASSEN MN
500 PM CDT WED MAY 06 2015


NOTE: "FAIR" INDICATES FEW OR NO CLOUDS BELOW 12,000 FEET WITH NO
SIGNIFICANT WEATHER AND/OR OBSTRUCTIONS TO VISIBILITY. N/A MEANS
CURRENT SKY AND/OR WEATHER CONDITIONS ARE NOT AVAILABLE.

MNZ060>063-068>070-062300-
   Twin Cities Metro

CITY           SKY/WX    TMP DP  RH WIND       PRES   REMARKS
TWIN CITIES    CLOUDY    75  57  53 SE22G33   29.87F
ST PAUL        PTSUNNY   74  58  57 SE16G29   29.88F
CRYSTAL        CLOUDY    75  57  53 SE21G30   29.84F
BLAINE         PTSUNNY   75  55  50 SE18G25   29.87F
LAKEVILLE      CLOUDY    72  57  60 SE16G22   29.87F
EDEN PRAIRIE   LGT RAIN  74  57  55 SE22G30   29.85S
SOUTH ST PAUL  PTSUNNY   74  57  54 SE9G17    29.89S
LAKE ELMO      PTSUNNY   73  55  53 SE15      29.90F
$$
MNZ001>005-007-008-013>017-022>024-027-028-062300-
   Northwest Minnesota

CITY           SKY/WX    TMP DP  RH WIND       PRES   REMARKS
BEMIDJI        CLOUDY    64  55  70 E13       29.85F
HALLOCK        DRIZZLE   64  63  94 SE15      29.79F
ROSEAU         DRIZZLE   64  59  82 SE13      29.85F
WARROAD        LGT RAIN  64  61  88 SE10      29.87F
THIEF RVR FALL CLOUDY    63  59  88 SE12      29.83F
CROOKSTON      LGT RAIN  61  61 100 E12       29.78F
FOSSTON        DRIZZLE   63  57  82 E8        29.81F
DETROIT LAKES  LGT RAIN  66  55  68 SE15      29.79F
MOORHEAD       DRIZZLE   64  59  82 E14G20    29.76S
PARK RAPIDS    CLOUDY    69  55  60 E14       29.81F
MAHNOMEN       CLOUDY    65  56  72 E12G17    29.78F
$$
MNZ006-009>011-018-025>026-062300-
   North Central Minnesota

CITY           SKY/WX    TMP DP  RH WIND       PRES   REMARKS
BAUDETTE       LGT RAIN  63  58  83 SE9       29.89F
FLAG ISLAND    DRIZZLE   57  54  88 SE5       29.88F
INTL FALLS     CLOUDY    67  56  67 S8        29.92F
WASKISH        DRIZZLE   63  57  82 CALM      29.89F
BIG FORK       CLOUDY    66  54  63 E8        29.92F
LONGVILLE      CLOUDY    72  55  56 SE10G16   29.86F
GRAND RAPIDS   CLOUDY    64  52  63 SE6       29.92F
CRANE LAKE     CLOUDY    66  54  63 S6        29.97F
ORR            CLOUDY    64  54  68 SE8       29.93F
COOK           CLOUDY    63  55  77 SE8       29.97F
WALKER         FAIR      64  55  70 E8        29.85F
$$
MNZ012-019>021-037-062300-
   Northeast Minnesota

CITY           SKY/WX    TMP DP  RH WIND       PRES   REMARKS
DULUTH         CLOUDY    60  52  74 E16       29.98F
ELY            CLOUDY    64  52  63 SE14      29.98F
HIBBING        CLOUDY    62  51  67 SE13      29.96F
EVELETH        CLOUDY    63  52  67 SE9       29.98F
DULUTH HARBOR    N/A     46  37  71 E13       30.01F
TWO HARBORS    CLOUDY    61  48  63 E15       30.00F
SILVER BAY     CLOUDY    57  34  41 NE12      30.01F
GRAND MARAIS     N/A     49  31  49 E9        30.05F
G MARAIS ARPRT PTSUNNY   61  43  51 E8        30.06F
$$
MNZ029>031-032-039>041-046>048-054>057-064-062300-
   West Central Minnesota

CITY           SKY/WX    TMP DP  RH WIND       PRES   REMARKS
FERGUS FALLS   CLOUDY    64  57  77 E10G20    29.74F
WHEATON        CLOUDY    64  61  88 SE21G26   29.72F
MORRIS         LGT RAIN  64  63  94 S7        29.74F
ALEXANDRIA     CLOUDY    65  59  81 SE15G26   29.80F
ELBOW LAKE     LGT RAIN  67  58  74 SE22G29   29.74F
WADENA         CLOUDY    68  55  64 E21       29.79F
GLENWOOD       CLOUDY    64  63  94 SE15G22   29.80R
APPLETON       LGT RAIN  70  64  83 S12       29.73F
BENSON         LGT RAIN  68  61  77 S13G23    29.75F
ORTONVILLE     CLOUDY    70  61  73 S18G26    29.71S
MADISON        PTSUNNY   72  61  68 S17G26    29.72F
WILLMAR        FAIR      72  64  78 SE22G29   29.79F
$$
MNZ033>034-036-042>043-049>051-058-059-062300-
   Central Minnesota

CITY           SKY/WX    TMP DP  RH WIND       PRES   REMARKS
ST CLOUD       CLOUDY    73  56  54 SE16G28   29.81F
SAUK CENTRE    HVY RAIN  70  58  66 SE28      29.82R
PAYNESVILLE    RAIN      60  59  96 SE17G23   29.82R
AITKIN         CLOUDY    73  55  53 E12       29.86F
PINE RIVER     CLOUDY    70  57  64 E12       29.87F
BRAINERD       CLOUDY    68  55  63 E9G20     29.85F
STAPLES        CLOUDY    70  54  56 E9G18     29.81F
LONG PRAIRIE   CLOUDY    68  55  64 E14G24    29.80F
LITTLE FALLS   CLOUDY    72  52  49 E13G24    29.82F
LITCHFIELD     LGT RAIN  64  64 100 SE12G20   29.83F
BUFFALO        RAIN      71  59  65 E15G23    29.84F
MAPLE LAKE     LGT RAIN  72  60  66 E12G22    29.83F
$$
MNZ037-044-045-052-053-062300-
   East Central Minnesota

CITY           SKY/WX    TMP DP  RH WIND       PRES   REMARKS
PRINCETON      CLOUDY    75  57  53 SE12G23   29.86F
MORA           PTSUNNY   73  54  49 SE12      29.89F
CAMBRIDGE      PTSUNNY   77  59  53 SE12G22   29.85F
RUSH CITY      PTSUNNY   74  55  51 E10G20    29.89F
MOOSE LAKE     CLOUDY    64  50  59 E8        29.92F
HINCKLEY       FAIR      73  55  53 E15       29.90F
CLOQUET        CLOUDY    57  46  67 E10G18    29.96F
MCGREGOR       CLOUDY    70  54  56 E14G20    29.91F
$$
MNZ071>073-080-081-089-090-097-098-062300-
   Southwest Minnesota

CITY           SKY/WX    TMP DP  RH WIND       PRES   REMARKS
MONTEVIDEO     CLOUDY    72  61  68 SW21G31   29.74F
GRANITE FALLS  PTSUNNY   74  58  56 SE26      29.76F
CANBY          CLOUDY    71  58  63 S18G25    29.73F
MARSHALL       PTSUNNY   73  57  56 S24G32    29.74F
REDWOOD FALLS  MOSUNNY   76  60  57 S26G35    29.76F
OLIVIA         PTSUNNY   72  61  68 SE21G28   29.78F
PIPESTONE      PTSUNNY   72  57  60 S24G35    29.74F
WINDOM         MOSUNNY   73  57  56 S17G28    29.79F
WORTHINGTON    CLOUDY    70  57  64 S31G39    29.81R
JACKSON        MOSUNNY   73  54  49 S22G35    29.83S
TRACY          PTSUNNY   74  58  56 S24G35    29.76F
SLAYTON        LGT RAIN  64  61  90 S24G44    29.79R
$$
MNZ065>067-074>077-082>085-091>093-062300-
   South Central Minnesota

CITY           SKY/WX    TMP DP  RH WIND       PRES   REMARKS
MANKATO        CLOUDY    75  63  64 SE23G30   29.84F
NEW ULM        PTSUNNY   73  61  64 S21G30    29.81F
ST JAMES       MOSUNNY   75  59  57 S24       29.82S
FAIRMONT       MOSUNNY   73  46  38 S25G31    29.82S
GLENCOE        LGT RAIN  67  65  96 S10G18    29.83S
FARIBAULT      CLOUDY    72  63  73 SE18G35   29.89R
OWATONNA       CLOUDY    70  61  73 SE17G26   29.89S
WASECA         CLOUDY    72  61  68 SE20G25   29.88F
ALBERT LEA     CLOUDY    70  63  78 SE20      29.88F
$$
MNZ078>079-086>088-094>096-062300-
   Southeast Minnesota

CITY           SKY/WX    TMP DP  RH WIND       PRES   REMARKS
ROCHESTER      TSTM      64  62  93 S22G37    29.95R FOG
RED WING       PTSUNNY   73  55  53 SE15      29.90S
STANTON        RAIN      72  59  63 SE9G21    29.88S
DODGE CENTER   CLOUDY    64  63  94 S14       29.93R THUNDER
WINONA         PTSUNNY   77  57  50 SE17      29.93F
AUSTIN         CLOUDY    70  63  78 S12G17    29.91F
PRESTON        CLOUDY    72  59  62 SE14G22   29.93F
$$
ABBREVIATIONS USED IN REMARKS
   TC - TEMPERATURES IN CELSIUS
  WCI - WIND CHILL INDEX
   HX - HEAT INDEX
  VSB - VISIBILITY
$$



USA.gov is the U.S. government's official web portal to all federal, state and local government web resources and services.